Regional Weather Roundup
Issued by NWS Burlington, VT

Home | Current Version | Previous Version | Text Only | Print | Product List | Glossary On
Versions: 1 2 3 4 5 6 7 8 9 10 11 12 13 14 15 16 17 18 19 20 21 22 23 24 25 26 27 28 29 30 31 32 33 34 35 36 37 38 39 40 41 42 43 44 45 46 47 48 49 50
000
ASUS41 KBTV 231530
RWRBTV
VERMONT REGIONAL WEATHER ROUNDUP
NATIONAL WEATHER SERVICE BURLINGTON VT
1000 AM EST TUE JAN 23 2018

NOTE: "FAIR" INDICATES FEW OR NO CLOUDS BELOW 12,000 FEET WITH NO
SIGNIFICANT WEATHER AND/OR OBSTRUCTIONS TO VISIBILITY.

* THESE REPORTS ARE NOT UNDER NWS QUALITY CONTROL AND/OR DO NOT
  REPORT WEATHER SUCH AS PRECIPITATION AND FOG.

VTZ001>019-231600-
_____VERMONT_____


CITY           SKY/WX    TMP DP  RH WIND       PRES   REMARKS
BURLINGTON     LGT RAIN  37  35  92 CALM      29.65F
MONTPELIER     RAIN      33  33 100 VRB5      29.75F FOG     WCI  29
MORRISVILLE    RAIN      34  33  96 S7        29.71F FOG     WCI  28
ST. JOHNSBURY*   N/A     33  33 100 MISG      29.74F
LYNDONVILLE*   RAIN      33  32  99 E5        29.74F WCI  28
MIDDLEBURY*    RAIN      41  40  97 S5        29.62F
RUTLAND*       RAIN      38  37  97 SE24G32   29.67F FOG     WCI  27
SPRINGFIELD    MIX PCPN  32  32 100 W3        29.76F FOG
HIGHGATE*      RAIN      39  38  96 S7        29.63R
NEWPORT*       RAIN      33  33  99 S10       29.69F WCI  25
BENNINGTON     RAIN      50  44  80 SE15G21   29.66F
SUTTON*          N/A     32 N/A N/A MISG        N/A
ISLAND POND*     N/A     34 N/A N/A NE1         N/A
GALLUP MILLS*    N/A     32 N/A N/A MISG        N/A
UNION VILLAGE*   N/A     32 N/A N/A MISG        N/A

_____LAKE CHAMPLAIN_____


CITY           SKY/WX    TMP DP  RH WIND       PRES   REMARKS
BURTON ISLAND*   N/A     39  37  93 S15G23      N/A  WCI  31
COLCHESTER RF*   N/A     37  36  93 S18         N/A  WCI  27
DIAMOND ISL*     N/A     37  37 100 S15         N/A  WCI  28

$$

NYZ007-026>031-035-052-083-087-231600-
_____NORTHERN NEW YORK_____


CITY           SKY/WX    TMP DP  RH WIND       PRES   REMARKS
PLATTSBURGH    LGT RAIN  39  37  92 S3        29.62F
SARANAC LAKE   LGT RAIN  39  39 100 SW6       29.56F
MASSENA        CLOUDY    33  33 100 E3        29.56F FOG
OGDENSBURG*      N/A     35  34  97 S3        29.51F FOG
POTSDAM*       CLOUDY    45  43  93 S10       29.52F
STARK FALLS*     N/A     39 N/A N/A SE20        N/A  WCI  30
WATERTOWN      FAIR      47  43  86 S9        29.50F
ALBANY         LGT RAIN  42  39  89 S12       29.67F FOG
GLENS FALLS    RAIN      33  33 100 CALM      29.66R VSB 1

$$
NHZ002-005-011-231600-
_____NEW HAMPSHIRE_____


CITY           SKY/WX    TMP DP  RH WIND       PRES   REMARKS
LEBANON        LGT RAIN  33  32  96 NW3       29.73F FOG
KEENE          LGT SNOW  34  32  93 CALM      29.73F VSB 3/4
MT WASHINGTON  FRZ RAIN  32  32 100 S43G54      N/A  VSB 0   WCI  15
PLYMOUTH       LGT SNOW  31  30  95 CALM      29.82F
WHITEFIELD     RAIN      37  37 100 NW3       29.72S FOG

$$

_____REGIONAL QUEBEC LOCATIONS_____


CITY           SKY/WX    TMP DP  RH WIND       PRES   REMARKS
MONTREAL       FRZ RAIN  25  23  93 NE15G22   29.62F FOG     WCI  12
QUEBEC CITY    FLURRIES  18  12  79 NE29G38   29.83F WCI  -2
SHERBROOKE     LGT RAIN  36  32  87 E8        29.66F WCI  29

_____REGIONAL ONTARIO LOCATIONS_____


CITY           SKY/WX    TMP DP  RH WIND       PRES   REMARKS
OTTAWA         CLOUDY    30  28  93 E10       29.52F FOG     WCI  21

______KEY______
VSB  - VISIBILITY IN MILES
WCI  - WIND CHILL INDEX
HX   - HEAT INDEX
$$
NNNN




USA.gov is the U.S. government's official web portal to all federal, state and local government web resources and services.